Simultaneous Nadir Overpasses (SNOs) Predictions

Prediction of SNOs between METOP-B and NOAA-19 Satellite Orbit:

Table of predicted SNOs for the next 14.0 days since TLE Epoch: 6/14/2024
Index Date (METOP-B) Time (METOP-B) Lat,Lon (METOP-B) SZA (METOP-B ) Date (NOAA-19) Time (NOAA-19) Lat,Lon (NOAA-19) SZA (NOAA-19 ) Distance(km) Time Diff (sec)
1 06/19/2024 07:21:16 67.00, 50.98 45.07 06/19/2024 07:20:06 67.01, 51.01 45.13 1.84 70
2 06/19/2024 08:11:46 -67.68,-140.90 134.42 06/19/2024 08:10:54 -67.66,-140.94 134.40 2.75 52
3 06/19/2024 09:01:59 69.08, 28.22 46.63 06/19/2024 09:01:25 69.08, 28.24 46.66 1.16 34
4 06/19/2024 09:52:29 -69.74,-163.53 132.86 06/19/2024 09:52:13 -69.72,-163.56 132.86 2.06 16
5 06/19/2024 10:42:49 70.74, 5.35 47.94 06/19/2024 10:42:51 70.75, 5.37 47.94 0.88 2
6 06/19/2024 11:33:19 -71.38, 173.75 131.55 06/19/2024 11:33:39 -71.37, 173.73 131.56 1.21 20
7 06/19/2024 12:23:43 72.17, -17.49 49.10 06/19/2024 12:24:21 72.17, -17.47 49.09 0.93 38
8 06/19/2024 13:14:15 -72.69, 150.85 130.47 06/19/2024 13:15:11 -72.68, 150.85 130.49 0.26 56



Historial Predications of SNOs between METOP-B and NOAA-19
